Harbor Springs, MI

11:24 AM EDT on October 17, 2017 (GMT -0400)
Harbor Springs

Weather History for KMGN - April, 2014

Change the Weather History Date:

Friday, April 25, 2014

  Actual Average (KPLN) Record (KPLN)
Temperature  
Mean Temperature 39 °F -  
Max Temperature 44 °F 57 °F 85 °F (1990)
Min Temperature 34 °F 32 °F 16 °F (1967)
Degree Days  
Heating Degree Days 26    
Moisture  
Dew Point 31 °F    
Average Humidity 71    
Maximum Humidity 99    
Minimum Humidity 33    
Precipitation  
Precipitation 0.00 in - - ()
Sea Level Pressure  
Sea Level Pressure 29.76 in    
Wind  
Wind Speed 7 mph (East)    
Max Wind Speed 13 mph    
Max Gust Speed 18 mph    
Visibility 9 miles    
Events Rain , Snow    
Averages and records for this station are not official NWS values.
T = Trace of Precipitation, MM = Missing Value Source: NWS Daily Summary

Daily Weather History Graph

Daily Weather History Graph

Search for Another Location

Airport or City:

Trip Planner

Search our weather history database for the weather conditions in past years. The results will help you decide how hot, cold, wet, or windy it might be!

Date:

Astronomy

Apr. 25, 2014 Rise Set
Actual Time 6:37 AM EDT 8:38 PM EDT
Civil Twilight 6:05 AM EDT 9:10 PM EDT
Nautical Twilight 5:26 AM EDT 9:50 PM EDT
Astronomical Twilight 4:42 AM EDT 10:33 PM EDT
Moon 4:37 AM EDT (4/25) 4:49 PM EDT (4/25)
Length of Visible Light 15h 05m
Length of Day
14h 01m
Waning Crescent, 15% of the Moon is Illuminated
Apr 25
Waning Crescent
Apr 29
New
May 6
First Quarter
May 14
Full
May 21
Last Quarter

Hourly Weather History & Observations

Time (EDT) Temp. Windchill Dew Point Humidity Pressure Visibility Wind Dir Wind Speed Gust Speed Precip Events Conditions
12:15 AM 44.2 °F 40.3 °F 16.9 °F 33% 29.89 in 10.0 mi East 6.9 mph - N/A   Overcast
12:34 AM 44.1 °F 39.0 °F 16.5 °F 33% 29.90 in 10.0 mi East 9.2 mph - N/A   Overcast
12:55 AM 43.7 °F 38.6 °F 17.4 °F 35% 29.89 in 10.0 mi East 9.2 mph - N/A   Overcast
1:15 AM 43.0 °F 37.7 °F 17.8 °F 36% 29.89 in 10.0 mi East 9.2 mph - N/A   Overcast
1:34 AM 43.0 °F 38.8 °F 18.3 °F 37% 29.88 in 10.0 mi East 6.9 mph - N/A   Overcast
1:55 AM 43.0 °F 37.7 °F 18.3 °F 37% 29.88 in 10.0 mi East 9.2 mph - N/A   Overcast
2:15 AM 42.4 °F 37.5 °F 19.0 °F 39% 29.86 in 10.0 mi East 8.1 mph - N/A   Overcast
2:34 AM 42.3 °F 35.9 °F 19.2 °F 40% 29.85 in 10.0 mi East 11.5 mph 16.1 mph N/A   Overcast
2:55 AM 42.1 °F 35.2 °F 19.2 °F 40% 29.82 in 10.0 mi ENE 12.7 mph 18.4 mph N/A   Overcast
3:15 AM 41.9 °F 35.9 °F 18.7 °F 39% 29.81 in 10.0 mi East 10.4 mph 16.1 mph N/A   Overcast
3:35 AM 41.9 °F 35.9 °F 18.3 °F 39% 29.80 in 10.0 mi East 10.4 mph 16.1 mph N/A   Overcast
3:55 AM 41.9 °F 35.0 °F 18.1 °F 38% 29.79 in 10.0 mi East 12.7 mph - N/A   Overcast
4:15 AM 41.9 °F 37.5 °F 18.1 °F 38% 29.78 in 10.0 mi East 6.9 mph 16.1 mph N/A   Overcast
4:35 AM 41.9 °F 36.9 °F 18.1 °F 38% 29.79 in 10.0 mi East 8.1 mph - N/A   Overcast
4:55 AM 41.9 °F 37.5 °F 19.2 °F 40% 29.78 in 10.0 mi East 6.9 mph - N/A   Overcast
5:14 AM 41.9 °F 38.2 °F 19.8 °F 41% 29.78 in 10.0 mi ENE 5.8 mph - N/A   Overcast
5:35 AM 41.4 °F 34.7 °F 20.8 °F 44% 29.76 in 10.0 mi ENE 11.5 mph - N/A   Overcast
5:55 AM 41.2 °F 36.6 °F 21.9 °F 46% 29.76 in 10.0 mi East 6.9 mph - N/A   Unknown
6:14 AM 39.4 °F 32.3 °F 25.5 °F 58% 29.76 in 10.0 mi ENE 11.5 mph - N/A   Unknown
6:35 AM 38.7 °F 32.4 °F 27.5 °F 64% 29.76 in 10.0 mi ENE 9.2 mph - N/A Snow Light Snow
6:55 AM 37.8 °F 31.3 °F 29.5 °F 72% 29.75 in 7.0 mi ENE 9.2 mph - N/A Rain Light Rain
7:14 AM 37.4 °F 30.3 °F 30.6 °F 76% 29.75 in 7.0 mi ENE 10.4 mph - N/A Snow Light Snow
7:55 AM 38.3 °F 31.9 °F 30.2 °F 73% 29.75 in 10.0 mi ENE 9.2 mph - N/A   Light Drizzle
8:14 AM 38.3 °F 33.2 °F 30.6 °F 74% 29.75 in 10.0 mi ENE 6.9 mph - N/A Rain Rain
8:35 AM 38.3 °F 33.2 °F 31.5 °F 76% 29.75 in 7.0 mi ENE 6.9 mph - N/A   Drizzle
8:55 AM 37.6 °F 31.6 °F 32.0 °F 80% 29.76 in 5.0 mi ENE 8.1 mph - N/A Rain Rain
9:14 AM 37.4 °F 31.4 °F 32.2 °F 81% 29.75 in 10.0 mi ENE 8.1 mph - N/A   Drizzle
9:35 AM 37.6 °F 32.3 °F 32.7 °F 83% 29.74 in 10.0 mi ENE 6.9 mph - N/A   Overcast
9:55 AM 37.8 °F 31.8 °F 32.9 °F 83% 29.74 in 10.0 mi ENE 8.1 mph - N/A   Overcast
10:14 AM 38.3 °F 33.9 °F 32.7 °F 80% 29.74 in 10.0 mi ENE 5.8 mph - N/A   Overcast
10:35 AM 39.0 °F 34.8 °F 32.9 °F 79% 29.74 in 10.0 mi East 5.8 mph - N/A   Overcast
10:55 AM 39.2 °F 33.0 °F 32.5 °F 77% 29.73 in 10.0 mi East 9.2 mph - N/A   Overcast
11:14 AM 39.6 °F 35.4 °F 32.5 °F 76% 29.73 in 10.0 mi East 5.8 mph - N/A   Overcast
11:35 AM 39.6 °F 35.4 °F 32.5 °F 76% 29.74 in 10.0 mi ENE 5.8 mph - N/A   Overcast
11:55 AM 40.1 °F 36.1 °F 32.5 °F 74% 29.74 in 10.0 mi East 5.8 mph - N/A   Overcast
12:15 PM 40.5 °F 38.4 °F 32.5 °F 73% 29.74 in 10.0 mi East 3.5 mph - N/A   Overcast
12:35 PM 41.0 °F 39.0 °F 32.9 °F 73% 29.73 in 10.0 mi ENE 3.5 mph - N/A   Overcast
12:54 PM 41.5 °F 39.6 °F 33.8 °F 74% 29.73 in 10.0 mi East 3.5 mph - N/A   Overcast
1:15 PM 41.5 °F - 33.8 °F 74% 29.73 in 10.0 mi Calm Calm - N/A   Overcast
1:35 PM 41.9 °F - 34.5 °F 75% 29.73 in 10.0 mi Calm Calm - N/A   Overcast
1:54 PM 43.3 °F - 36.1 °F 76% 29.72 in 10.0 mi Calm Calm - N/A   Overcast
2:15 PM 42.8 °F 41.1 °F 36.5 °F 78% 29.72 in 10.0 mi SW 3.5 mph - N/A   Overcast
2:35 PM 43.2 °F - 37.0 °F 79% 29.72 in 10.0 mi Calm Calm - N/A   Overcast
2:54 PM 43.9 °F - 38.1 °F 80% 29.72 in 10.0 mi Calm Calm - N/A   Overcast
3:15 PM 44.2 °F 41.8 °F 38.1 °F 79% 29.72 in 10.0 mi SW 4.6 mph - N/A   Overcast
3:34 PM 44.4 °F 41.2 °F 37.9 °F 78% 29.72 in 10.0 mi SW 5.8 mph - N/A   Overcast
3:55 PM 43.0 °F 40.3 °F 37.4 °F 81% 29.72 in 10.0 mi WSW 4.6 mph - N/A   Overcast
4:15 PM 42.8 °F 40.1 °F 37.6 °F 82% 29.73 in 7.0 mi SW 4.6 mph - N/A   Overcast
4:34 PM 41.4 °F 37.6 °F 37.0 °F 85% 29.72 in 7.0 mi WSW 5.8 mph - N/A   Overcast
4:55 PM 40.6 °F 38.6 °F 36.7 °F 86% 29.73 in 7.0 mi WSW 3.5 mph - N/A   Overcast
5:15 PM 37.8 °F 32.5 °F 35.2 °F 91% 29.74 in 5.0 mi WSW 6.9 mph - N/A   Overcast
5:34 PM 38.5 °F 35.0 °F 36.3 °F 92% 29.74 in 5.0 mi West 4.6 mph - N/A   Overcast
5:55 PM 39.9 °F 35.1 °F 36.7 °F 88% 29.74 in 10.0 mi WSW 6.9 mph - N/A   Overcast
6:15 PM 40.6 °F - 36.5 °F 85% 29.73 in 10.0 mi Calm Calm - N/A   Scattered Clouds
6:34 PM 40.1 °F - 36.5 °F 87% 29.73 in 10.0 mi Calm Calm - N/A   Mostly Cloudy
6:55 PM 41.4 °F - 36.9 °F 84% 29.71 in 10.0 mi Calm Calm - N/A   Overcast
7:15 PM 42.8 °F 39.3 °F 37.4 °F 81% 29.71 in 10.0 mi East 5.8 mph - N/A   Overcast
7:34 PM 43.2 °F 39.0 °F 37.8 °F 81% 29.70 in 10.0 mi ENE 6.9 mph - N/A   Overcast
7:55 PM 43.3 °F 40.7 °F 37.8 °F 81% 29.69 in 10.0 mi East 4.6 mph - N/A   Overcast
8:15 PM 43.9 °F - 37.9 °F 80% 29.71 in 10.0 mi Calm Calm - N/A Rain Light Rain
8:34 PM 43.0 °F 38.8 °F 40.3 °F 90% 29.72 in 3.0 mi NW 6.9 mph - N/A Rain Light Rain
8:55 PM 42.4 °F 39.6 °F 40.3 °F 92% 29.72 in 7.0 mi North 4.6 mph - N/A Rain Light Rain
9:15 PM 42.3 °F - 40.5 °F 93% 29.73 in 7.0 mi Calm Calm - N/A Rain Light Rain
9:34 PM 42.3 °F - 40.6 °F 94% 29.73 in 7.0 mi Calm Calm - N/A   Light Drizzle
9:55 PM 42.3 °F - 41.0 °F 95% 29.74 in 5.0 mi Calm Calm - N/A   Overcast
10:15 PM 40.3 °F 37.1 °F 39.0 °F 95% 29.75 in 7.0 mi SW 4.6 mph - N/A   Overcast
10:34 PM 36.5 °F 33.9 °F 35.8 °F 97% 29.76 in 3.0 mi SSW 3.5 mph - N/A   Overcast
10:55 PM 35.4 °F - 34.9 °F 98% 29.76 in 2.0 mi Calm Calm - N/A   Overcast
11:15 PM 34.7 °F - 34.2 °F 98% 29.76 in 2.5 mi Calm Calm - N/A   Overcast
11:34 PM 34.2 °F 31.2 °F 33.8 °F 99% 29.76 in 2.5 mi SSE 3.5 mph - N/A   Overcast
11:55 PM 34.2 °F 31.2 °F 33.8 °F 99% 29.76 in 4.0 mi South 3.5 mph - N/A   Overcast